Theta_e
319 323 325 324 321 320 322 323 324 322 317 318 319 319 320 319 317 319 320 320 320 320 321 322 323 325 326 328 335 336 336 335 337 336 336 336 336 335 335 336 331 331 329 326
322 325 322 319 319 321 322 323 323 320 317 317 320 320 321 319 320 319 319 319 319 319 319 320 320 321 322 323 326 336 338 337 337 337 336 336 335 336 336 331 329 326 311 310
323 322 318 319 321 322 321 321 319 319 318 317 317 322 321 320 317 317 317 317 317 318 318 318 319 320 322 325 326 328 336 338 338 337 337 336 336 334 331 325 313 310 309 309
321 320 320 319 321 322 323 317 317 319 319 323 317 325 321 321 319 318 318 317 319 320 319 319 320 324 326 328 329 330 333 339 339 338 337 337 334 325 313 311 310 308 308 309
320 319 321 323 321 319 323 318 318 317 318 317 319 320 324 317 322 322 319 319 320 320 320 321 324 327 329 334 334 335 337 339 339 338 336 334 321 311 310 309 308 307 309 312
317 315 318 321 319 317 316 318 317 316 318 323 321 321 322 321 321 320 319 319 319 321 324 326 327 327 328 334 337 338 339 339 337 336 334 315 311 311 309 308 307 307 307 310
318 318 316 317 319 317 318 321 326 327 324 326 317 318 323 320 320 319 319 318 319 322 326 329 330 329 328 331 336 338 338 338 336 325 311 311 311 310 308 307 307 307 308 308
321 322 320 318 321 322 319 322 327 328 327 326 317 322 323 320 319 317 318 319 318 321 326 330 331 331 332 334 336 337 337 334 321 312 311 311 310 308 307 306 307 308 308 308
321 321 319 317 317 321 319 321 320 323 317 320 323 321 319 319 316 319 320 319 319 321 325 329 329 329 330 329 329 328 326 318 312 312 310 309 308 307 307 307 307 308 308 308
319 321 320 320 318 316 319 318 321 319 325 327 323 322 324 321 320 319 321 320 320 320 324 326 326 323 322 322 320 317 313 312 311 310 309 308 308 307 307 307 308 308 309 309
318 320 320 318 321 323 318 319 318 320 321 327 328 327 320 323 321 320 321 318 319 320 322 324 324 317 314 313 313 312 312 312 310 309 308 308 307 307 308 308 309 309 309 308
317 319 321 321 317 317 318 321 321 325 326 320 321 325 316 321 319 316 317 316 317 318 321 323 324 318 315 314 313 314 314 311 309 309 308 308 307 307 308 309 309 309 309 308
318 321 324 326 324 319 321 319 318 320 320 325 328 327 315 316 315 315 316 316 316 317 319 321 323 322 318 316 315 315 314 310 309 308 308 307 308 309 307 307 308 308 307 306
317 322 326 328 327 324 324 320 319 321 325 325 325 325 323 322 323 322 318 318 318 318 318 318 319 323 321 317 316 316 313 309 308 308 308 309 306 304 303 303 301 300 300 299
321 326 323 324 323 322 323 325 322 320 322 325 325 326 325 324 322 321 318 319 319 319 318 316 316 318 320 318 318 315 308 308 308 308 305 303 302 301 300 300 300 299 299 299
319 326 324 325 324 324 326 325 324 322 322 323 323 324 323 322 321 321 321 320 317 317 319 320 320 318 318 318 313 308 308 309 307 303 303 301 301 300 300 300 300 299 299 300
321 324 322 326 325 326 327 326 326 325 325 325 327 325 324 323 322 322 321 319 319 319 319 317 317 316 314 311 308 308 308 304 303 302 301 301 301 301 301 300 299 299 299 300
321 322 322 326 324 328 326 323 323 324 324 323 324 324 323 322 321 321 320 319 319 319 318 317 315 313 310 307 308 307 304 303 302 301 301 302 302 301 300 299 299 300 301 301
321 322 322 325 326 325 325 320 322 323 324 322 323 322 321 321 321 321 319 318 318 317 316 315 314 311 308 308 306 303 303 301 301 301 301 301 301 300 299 298 301 301 301 301
321 322 323 315 322 328 325 317 319 319 324 321 319 320 320 319 320 320 317 315 314 313 311 311 311 309 307 303 302 302 301 300 299 299 299 300 299 298 299 301 301 301 301 302
322 323 324 324 325 322 320 313 316 323 323 316 317 319 318 317 318 315 313 312 310 309 309 308 307 305 302 302 301 300 299 299 299 300 299 299 298 298 300 301 301 299 301 301
322 323 324 323 325 326 316 313 319 318 312 311 312 314 314 314 314 313 311 309 308 307 305 304 302 302 300 299 299 299 299 299 300 299 299 299 298 300 302 301 300 300 299 300
321 321 322 322 323 317 314 317 314 313 310 308 309 309 310 310 310 309 308 307 304 303 302 301 300 299 299 299 299 299 299 300 299 299 299 299 299 301 301 300 300 299 298 298
314 314 317 318 318 315 312 313 310 309 309 309 310 311 309 308 308 307 306 303 302 301 300 299 299 299 299 299 299 300 300 300 300 299 299 298 300 300 299 299 300 298 298 297
314 313 316 314 312 311 312 312 311 309 311 313 313 313 312 307 306 305 303 301 299 299 299 299 299 299 300 300 300 300 300 299 298 298 297 297 299 299 298 299 299 298 297 296
311 313 315 316 313 313 312 311 310 310 311 310 311 310 305 304 304 303 300 299 299 299 299 299 300 300 300 300 299 299 298 297 296 296 297 297 298 298 299 299 299 297 296 296
Wind_Speed
2 3 9 10 6 2 3 2 5 8 6 3 6 7 12 15 12 16 18 19 19 20 19 20 22 25 27 32 33 31 30 29 27 25 22 19 16 15 16 14 14 16 17 17
0 9 10 5 4 6 5 4 7 9 3 3 7 14 14 11 10 10 14 15 15 16 18 23 26 27 28 29 32 34 31 31 30 25 21 19 18 17 14 12 15 14 11 13
6 1 3 5 7 7 4 5 4 6 4 2 7 7 4 3 7 11 12 14 14 15 16 18 20 23 23 24 27 28 31 32 31 26 23 21 19 14 14 15 11 10 14 18
4 3 4 3 5 9 4 8 5 4 2 4 5 8 5 6 12 8 9 7 9 9 11 15 16 16 17 19 20 23 27 32 30 26 23 22 17 15 14 11 9 13 15 17
1 4 5 5 6 10 5 4 3 1 3 2 2 4 6 3 10 12 6 5 6 7 9 12 12 12 13 14 17 19 23 28 30 24 21 18 16 15 12 10 11 11 13 15
5 2 4 5 4 5 3 3 4 3 1 5 5 6 3 3 5 4 3 5 8 7 9 11 13 14 14 15 18 21 25 26 23 22 21 18 16 12 11 10 10 11 12 14
1 3 2 3 3 1 2 2 3 2 2 5 6 6 10 7 14 9 7 10 10 8 10 14 17 18 18 20 21 22 24 24 23 22 21 17 15 13 10 10 10 12 13 15
5 2 7 4 7 5 6 6 4 4 5 7 4 7 5 14 14 8 11 13 10 11 13 18 20 20 20 20 22 23 23 24 23 22 18 17 15 12 11 11 12 15 15 17
6 4 2 4 2 5 4 5 2 3 2 4 6 8 8 9 7 5 13 8 9 13 18 21 22 23 23 23 23 23 24 24 22 20 16 14 14 13 12 13 15 15 17 21
5 1 4 3 4 2 3 6 2 0 5 12 5 6 9 7 9 9 10 10 13 15 19 22 25 26 26 26 25 25 25 23 20 18 16 16 16 15 17 17 17 19 21 24
5 3 2 2 8 11 3 3 1 2 4 8 10 6 7 9 8 8 8 12 16 18 22 25 29 30 29 28 28 27 26 24 22 20 18 18 19 21 20 17 19 22 26 27
4 4 6 13 3 2 1 8 11 10 11 5 6 15 5 7 5 6 8 11 15 20 22 27 32 32 32 32 31 30 27 25 24 22 22 21 21 19 17 19 25 28 31 31
9 4 3 3 2 1 5 7 8 8 6 19 15 11 6 5 4 6 6 10 13 15 20 28 34 37 36 36 34 31 29 26 25 24 21 19 15 13 21 25 28 31 32 32
14 7 8 13 9 3 5 11 12 16 14 15 25 34 14 16 16 17 20 25 22 21 25 27 32 41 43 38 34 32 30 26 24 20 15 11 13 19 22 26 26 27 28 31
5 14 9 11 10 6 16 21 15 19 21 20 25 30 17 14 14 15 19 22 26 34 31 27 28 36 45 38 35 32 26 22 17 14 11 12 17 18 19 20 23 27 29 30
5 15 10 23 14 16 30 25 20 19 20 21 26 37 21 28 28 27 29 25 26 27 34 35 37 35 40 38 31 25 22 19 16 12 13 15 15 17 19 22 27 30 30 30
7 6 3 29 14 15 24 18 28 28 29 27 28 41 32 22 22 25 26 24 23 26 29 27 27 28 31 34 28 25 21 17 13 12 12 13 15 19 22 27 31 33 34 33
15 14 11 17 5 12 21 9 14 21 26 28 31 31 27 25 30 35 28 26 26 29 27 24 21 21 27 27 25 22 17 12 11 12 13 15 18 21 26 30 32 33 31 27
17 12 6 8 14 17 30 6 8 10 27 23 24 26 25 28 28 29 33 26 31 27 23 21 19 18 22 25 23 18 13 10 12 13 14 16 20 23 27 29 28 23 21 21
20 18 12 4 5 13 18 1 16 5 22 15 19 20 16 19 10 14 19 18 16 17 17 13 13 18 25 21 16 12 9 11 11 11 13 15 19 24 25 25 26 22 20 20
14 15 23 20 16 9 8 6 16 11 9 7 19 23 15 8 15 12 12 12 12 11 11 16 24 23 18 13 10 10 11 10 11 11 13 16 20 23 20 19 19 19 18 18
12 8 12 14 14 20 14 9 13 3 5 11 11 17 17 19 17 18 14 11 14 19 23 23 22 18 14 10 9 10 11 12 12 14 16 18 19 18 17 19 18 17 16 17
8 11 8 11 7 2 19 13 22 16 6 7 7 7 10 12 15 17 17 20 23 22 21 19 15 13 10 10 10 11 13 14 16 18 20 20 18 16 15 18 15 14 14 15
6 4 6 4 8 8 8 15 7 7 5 5 3 7 9 14 13 17 22 26 24 21 18 15 12 10 12 13 14 14 14 16 19 22 24 22 19 17 14 15 14 9 11 15
5 11 10 4 4 2 8 11 11 11 15 18 18 18 19 18 18 21 28 26 23 20 16 13 11 13 14 14 13 14 16 17 19 21 19 15 14 14 17 15 13 8 9 10
2 4 5 4 4 5 4 6 6 9 17 22 21 22 20 20 22 26 26 23 20 18 15 13 12 13 13 14 14 16 17 17 18 15 12 13 15 15 17 11 12 8 7 7
Wind_Direction
24 227 219 228 213 171 143 218 269 263 262 266 260 275 285 292 277 273 274 274 269 261 253 243 239 240 244 244 238 234 228 221 214 210 206 211 216 226 233 245 255 262 277 286
73 254 240 234 200 225 207 253 273 282 267 258 280 283 281 266 261 269 275 277 276 271 257 246 243 243 243 244 242 232 226 221 216 213 209 211 221 227 235 239 253 263 272 284
188 215 82 184 206 204 206 207 229 260 319 249 307 265 258 262 270 266 262 270 273 275 266 257 244 243 246 245 242 232 222 216 214 213 207 217 221 222 225 242 228 257 281 282
236 257 218 168 223 201 245 214 220 246 288 286 355 299 277 290 293 276 282 268 274 280 265 252 245 237 238 237 234 224 216 209 207 208 208 218 213 222 207 218 258 279 277 275
196 185 184 207 228 178 225 158 186 155 229 323 261 254 284 345 281 279 240 235 276 273 255 245 238 230 228 226 218 210 204 200 204 201 208 208 206 200 219 253 274 280 281 267
250 258 198 208 191 191 119 114 64 69 164 256 209 221 280 241 231 265 190 250 264 245 226 217 213 212 211 205 201 199 197 200 201 194 202 192 197 219 246 272 280 275 279 275
222 212 243 178 128 107 115 83 301 257 208 257 151 190 256 253 245 238 284 294 286 253 226 208 201 198 201 202 196 193 194 195 195 189 188 198 217 231 249 261 263 268 281 296
180 250 185 185 205 190 191 180 199 273 269 283 110 242 256 255 273 283 284 287 278 241 219 208 202 199 196 192 189 188 190 193 192 196 203 216 222 238 249 256 266 274 286 297
175 258 207 182 148 176 166 198 177 243 170 272 241 264 264 255 258 278 266 291 272 241 223 211 206 204 199 198 196 197 198 199 204 209 217 225 237 244 260 271 276 285 292 296
205 240 218 135 129 50 194 151 142 37 273 268 224 256 242 236 239 242 260 246 255 249 233 223 219 215 210 207 204 204 206 210 215 220 224 231 240 251 263 268 279 286 292 296
152 171 222 157 202 196 159 193 223 266 202 267 289 252 215 230 222 231 261 270 266 254 242 231 225 218 213 213 213 214 215 217 222 228 234 239 245 252 258 272 281 281 280 282
194 158 208 226 125 97 73 239 227 238 246 231 262 264 210 205 184 187 262 284 283 266 255 244 233 223 220 220 222 222 225 228 234 236 240 243 251 258 268 280 278 278 283 283
179 194 218 248 224 162 212 196 211 240 258 253 261 255 166 194 195 205 248 271 279 281 265 254 244 232 230 230 227 227 230 234 237 240 246 252 254 266 282 276 276 280 287 289
168 180 204 245 245 163 213 217 213 220 242 259 244 275 232 256 267 267 267 269 274 278 275 271 259 240 235 232 229 232 232 238 240 247 246 244 260 275 273 275 283 289 292 294
196 253 236 244 244 218 249 247 223 224 237 243 266 261 259 250 267 274 257 268 274 276 274 271 272 260 241 235 231 229 230 232 227 219 231 258 279 284 278 283 293 296 298 295
186 249 254 264 257 253 261 243 230 226 235 249 259 265 259 278 281 279 282 281 263 265 274 277 276 270 250 236 226 221 219 209 207 226 260 280 287 275 277 288 298 300 299 296
205 231 155 261 239 248 267 243 236 243 239 241 247 252 279 276 274 279 285 273 261 276 285 289 289 274 249 222 216 208 196 204 225 252 272 277 266 279 292 299 303 305 304 299
235 227 227 261 194 227 247 234 203 219 234 234 246 259 264 270 277 281 277 270 271 278 281 284 281 263 229 213 197 191 198 217 246 264 269 271 278 290 300 305 308 312 312 304
215 213 225 234 237 265 276 209 186 199 256 225 233 243 251 264 277 274 271 276 282 279 271 267 266 244 213 190 185 191 205 231 249 262 271 273 283 295 306 308 310 313 314 311
212 216 218 169 220 243 279 301 208 153 262 197 214 234 228 233 249 261 276 283 273 268 259 247 221 182 173 175 185 200 222 239 248 253 255 271 293 297 304 309 311 311 315 312
199 208 221 234 240 262 245 131 144 190 271 180 204 222 214 192 221 245 269 274 261 248 213 165 159 158 166 181 198 224 235 239 239 244 273 293 300 298 296 301 316 324 314 310
183 191 217 225 232 241 153 167 205 200 170 196 193 205 204 224 237 248 259 227 189 168 156 157 158 162 173 196 210 220 230 234 248 266 276 289 295 288 291 300 301 302 301 300
201 207 201 204 216 205 189 215 215 232 204 201 196 204 218 234 240 244 223 183 171 168 164 164 168 173 188 204 221 231 236 247 259 271 281 286 286 281 289 301 291 292 291 298
231 201 220 202 207 215 211 218 205 206 207 231 263 289 252 239 243 231 205 182 177 174 174 176 183 199 207 219 226 234 248 263 273 281 285 285 281 279 292 289 293 295 294 301
189 164 207 246 208 245 239 237 243 251 262 277 287 284 275 248 234 219 189 179 178 181 185 192 203 214 221 229 239 252 261 271 280 289 294 293 283 285 283 277 279 274 284 300
193 203 216 251 196 209 179 183 219 239 245 260 263 263 243 228 209 187 180 182 186 187 190 200 211 226 231 239 250 259 267 276 284 281 277 281 284 290 295 247 255 251 264 293